Tracking 31027 objects as of 19-Jul-2025
HD Live streaming from Space Station
objects crossing your sky now

THORAD DELTA 1 DEB

Track THORAD DELTA 1 DEB now!
10-day predictions


NORAD ID: 8164
Int'l Code: 1974-089AE
Perigee: 1,465.4 km
Apogee: 1,656.3 km
Inclination: 101.6 °
Period: 117.2 minutes
Semi major axis: 7931 km
RCS: 0.1159 m2 (medium)
Launch date: November 15, 1974
Source: United States (US)
Launch site: AIR FORCE WESTERN TEST RANGE (AFWTR)

Note: This is SATELLITE DEBRIS
Your satellite tracking list
FLOCK 3S 1
Track 1 satellite(s)




NASA's NSSDC Master Catalog

Two Line Element Set (TLE):
1 08164U 74089AE  25199.60397318 -.00000003  00000-0  32621-3 0  9991
2 08164 101.5932 335.1507 0120387 250.5792 120.3306 12.28967943273634
Source of the keplerian elements: AFSPC